Voltar ao catálogo

STARLINK-11718

AtivoComunicaçõesVLEO
NORAD 64132·PAYLOAD·🇺🇸 United States

Lançado May 24, 2025 de Cape Canaveral Space Force Station

Loading…

Próximas Passagens (próximas 24 horas)

TLE

AtualizadoSource: CelesTrak SupGP

Época: Sep 15, 2026, 02:14 UTC

1 64132C 25111K   26258.09354167  .00054830  00000+0  42570-3 0  2582
2 64132  43.0005 272.5110 0001375 267.3561  96.2189 15.70821011    16

Acompanhe STARLINK-11718 em tempo real com AllMySat

Download on the App Store